カタログに戻る

STARLINK-34668

運用中通信VLEO
NORAD 64814·PAYLOAD·🇺🇸 United States

打ち上げ Jul 16, 2025 から Vandenberg Space Force Base

Loading…

次のパス (今後24時間)

TLE

最新Source: CelesTrak SupGP

元期: Sep 14, 2026, 21:15 UTC

1 64814C 25150AA  26257.88590278 -.00024229  00000+0 -20301-2 0  2570
2 64814  70.0027  17.3281 0003423 272.4693 272.5371 14.98349439    10

AllMySatでSTARLINK-34668をリアルタイム追跡

Download on the App Store